period_start,C,m1,H,J0,J1,J2,J3,J4,J5,JA,JB,JC,JD,JJ,JK,JN,#
2017-03-03 00:03:11,0.19,12.12,0.00,20.40,23.57,27.66,14.90,53.54,1029.31,2038.00,916.33,1429.10,1581.83,599.77,608.66,44.47,0000 0000 0000 0000 000000
2017-03-03 00:08:12,0.15,12.12,0.00,20.43,23.57,27.65,14.93,53.59,1029.31,2038.00,915.51,1429.00,1581.11,600.09,608.76,44.52,0000 0000 0000 0000 000000
2017-03-03 00:13:13,0.11,12.13,0.00,20.44,23.57,27.70,14.95,53.46,1029.31,2038.00,914.61,1428.88,1580.99,599.98,608.72,44.57,0000 0000 0000 0000 000000
2017-03-03 00:18:14,0.21,12.14,0.00,20.43,23.57,27.68,14.89,53.49,1029.30,2038.00,913.73,1428.16,1580.45,599.84,608.60,44.62,0000 0000 0000 0000 000000
2017-03-03 00:23:15,0.09,12.15,0.00,20.44,23.58,27.68,14.89,53.66,1029.30,2038.00,912.87,1428.00,1580.01,599.71,608.51,44.67,0000 0000 0000 0000 000000
2017-03-03 00:28:17,0.13,12.15,0.00,20.47,23.59,27.70,14.91,53.42,1029.31,2038.00,911.95,1427.88,1579.91,600.02,608.72,44.72,0000 0000 0000 0000 000000
2017-03-03 00:33:18,0.24,12.17,0.00,20.45,23.60,27.69,14.99,53.56,1029.31,2038.00,911.01,1427.12,1579.15,600.23,608.89,44.77,0000 0000 0000 0000 000000
2017-03-03 00:38:19,0.13,12.17,0.00,20.46,23.60,27.69,14.93,53.68,1029.31,2038.00,910.07,1426.99,1578.99,599.67,608.34,44.82,0000 0000 0000 0000 000000
2017-03-03 00:43:21,0.21,12.18,0.00,20.51,23.60,27.72,14.90,53.54,1029.32,2038.00,909.13,1426.71,1578.47,599.98,608.55,44.87,0000 0000 0000 0000 000000
2017-03-03 00:48:22,0.17,12.19,0.00,20.48,23.61,27.70,14.92,53.58,1029.31,2038.00,908.24,1426.07,1578.01,600.04,608.73,44.92,0000 0000 0000 0000 000000
2017-03-03 00:53:23,0.12,12.20,0.00,20.49,23.62,27.72,14.95,53.68,1029.31,2038.00,907.38,1426.00,1577.95,600.38,609.04,44.97,0000 0000 0000 0000 000000
2017-03-03 00:58:25,0.12,12.20,0.00,20.54,23.62,27.76,14.88,53.70,1029.32,2038.00,906.69,1425.92,1577.35,599.85,608.50,45.02,0000 0000 0000 0000 000000
2017-03-03 01:03:26,0.15,12.21,0.00,20.53,23.62,27.76,14.83,53.67,1029.34,2038.00,905.91,1425.21,1577.01,599.77,608.38,45.07,0000 0000 0000 0000 000000
2017-03-03 01:08:28,0.12,12.22,0.00,20.53,23.63,27.75,14.94,53.66,1029.45,2038.00,905.04,1425.00,1576.88,600.20,608.85,45.12,0000 0000 0000 0000 000000
2017-03-03 01:13:29,0.17,12.23,0.00,20.56,23.65,27.75,14.96,53.67,1029.59,2037.99,904.15,1424.89,1576.12,600.09,608.71,45.18,0000 0000 0000 0000 000000
2017-03-03 01:18:30,0.20,12.24,0.00,20.56,23.65,27.76,14.88,53.66,1029.50,2037.99,903.25,1424.16,1575.99,599.93,608.57,45.23,0000 0000 0000 0000 000000
2017-03-03 01:23:31,0.16,12.24,0.00,20.58,23.66,27.78,14.91,53.61,1029.47,2037.99,902.38,1424.00,1575.53,599.96,608.40,45.28,0000 0000 0000 0000 000000
2017-03-03 01:28:32,0.14,12.25,0.00,20.63,23.67,27.78,14.95,53.66,1029.37,2037.99,901.49,1423.91,1575.02,600.29,608.64,45.33,0000 0000 0000 0000 000000
2017-03-03 01:33:34,0.18,12.26,0.00,20.61,23.67,27.80,14.95,53.69,1029.33,2037.99,900.64,1423.19,1574.97,600.17,608.61,45.38,0000 0000 0000 0000 000000
2017-03-03 01:38:35,0.14,12.27,0.00,20.61,23.69,27.82,14.90,53.59,1029.33,2037.97,899.76,1423.00,1574.25,599.81,608.21,45.43,0000 0000 0000 0000 000000
2017-03-03 01:43:36,0.11,12.28,0.00,20.64,23.70,27.84,14.89,53.67,1029.33,2037.96,898.90,1422.82,1573.99,600.11,608.44,45.48,0000 0000 0000 0000 000000
2017-03-03 01:48:38,0.20,12.29,0.00,20.67,23.71,27.85,14.96,53.64,1029.34,2037.97,898.04,1422.10,1573.67,600.06,608.51,45.53,0000 0000 0000 0000 000000
2017-03-03 01:53:39,0.14,12.29,0.00,20.66,23.72,27.85,14.95,53.76,1029.32,2037.93,897.18,1422.00,1573.04,600.15,608.53,45.58,0000 0000 0000 0000 000000
2017-03-03 01:58:41,0.12,12.30,0.00,20.68,23.73,27.86,14.88,53.75,1029.32,2037.85,896.35,1421.84,1572.98,599.85,608.13,45.63,0000 0000 0000 0000 000000
2017-03-03 02:03:42,0.16,12.31,0.00,20.71,23.75,27.87,14.89,53.88,1029.31,2037.58,895.65,1421.09,1572.22,600.00,608.14,45.68,0000 0000 0000 0000 000000
2017-03-03 02:08:43,0.03,12.31,0.00,20.71,23.76,27.90,14.90,53.73,1029.33,2037.42,894.99,1420.99,1571.98,599.94,608.16,45.73,0000 0000 0000 0000 000000
2017-03-03 02:13:45,0.18,12.32,0.00,20.73,23.77,27.90,14.97,53.78,1029.36,2037.25,894.17,1420.67,1571.44,600.39,608.50,45.78,0000 0000 0000 0000 000000
2017-03-03 02:18:46,0.15,12.32,0.00,20.80,23.79,27.92,14.90,53.79,1029.44,2037.22,893.44,1420.06,1571.01,600.25,608.10,45.83,0000 0000 0000 0000 000000
2017-03-03 02:23:47,0.08,12.33,0.00,20.81,23.81,27.96,14.90,53.73,1029.47,2037.09,892.65,1419.99,1570.94,599.76,607.82,45.88,0000 0000 0000 0000 000000
2017-03-03 02:28:49,0.15,12.34,0.00,20.81,23.82,27.97,14.93,53.69,1029.71,2037.04,891.88,1419.72,1570.21,600.63,608.83,45.93,0000 0000 0000 0000 000000
2017-03-03 02:33:50,0.15,12.35,0.00,20.85,23.84,28.00,14.93,53.87,1029.78,2037.02,891.01,1419.05,1570.00,599.72,607.95,45.98,0000 0000 0000 0000 000000
2017-03-03 02:38:51,0.15,12.36,0.00,20.87,23.86,28.01,14.92,53.84,1029.79,2037.00,890.11,1418.99,1569.68,600.20,608.33,46.03,0000 0000 0000 0000 000000
2017-03-03 02:43:53,0.19,12.36,0.00,20.89,23.87,28.02,14.85,53.85,1029.80,2037.00,889.24,1418.67,1569.03,599.82,607.78,46.09,0000 0000 0000 0000 000000
2017-03-03 02:48:54,0.15,12.37,0.00,20.92,23.89,28.05,14.87,53.72,1029.80,2037.00,888.48,1418.06,1568.97,600.17,608.21,46.14,0000 0000 0000 0000 000000
2017-03-03 02:53:55,0.15,12.38,0.00,20.92,23.90,28.06,14.97,53.83,1029.80,2037.00,887.64,1418.00,1568.37,600.29,608.36,46.19,0000 0000 0000 0000 000000
2017-03-03 02:58:57,0.16,12.39,0.00,20.93,23.92,28.08,14.84,53.74,1029.80,2037.00,886.77,1417.64,1568.00,600.09,607.97,46.24,0000 0000 0000 0000 000000
2017-03-03 03:03:58,0.14,12.40,0.00,20.98,23.94,28.10,14.86,54.05,1029.81,2037.00,885.91,1417.03,1567.75,599.86,607.61,46.29,0000 0000 0000 0000 000000
2017-03-03 03:08:59,0.14,12.41,0.00,21.01,23.95,28.11,14.87,53.87,1029.82,2036.98,885.04,1416.98,1567.05,599.78,607.57,46.34,0000 0000 0000 0000 000000
2017-03-03 03:14:01,0.19,12.41,0.00,21.02,23.97,28.14,14.80,53.88,1029.81,2036.97,884.17,1416.46,1566.96,599.84,607.74,46.39,0000 0000 0000 0000 000000
2017-03-03 03:19:02,0.19,12.42,0.00,21.06,23.99,28.16,14.85,53.97,1029.83,2036.97,883.42,1416.01,1566.22,599.94,607.67,46.44,0000 0000 0000 0000 000000
2017-03-03 03:24:03,0.08,12.43,0.00,21.10,24.01,28.18,14.95,54.04,1029.99,2036.86,882.67,1415.96,1565.99,599.92,607.66,46.49,0000 0000 0000 0000 000000
2017-03-03 03:29:05,0.14,12.43,0.00,21.10,24.03,28.20,14.90,53.95,1030.06,2036.58,881.85,1415.24,1565.50,600.25,608.05,46.54,0000 0000 0000 0000 000000
2017-03-03 03:34:06,0.06,12.44,0.00,21.16,24.05,28.22,14.93,54.10,1030.01,2036.27,880.98,1415.00,1565.01,600.13,607.90,46.59,0000 0000 0000 0000 000000
2017-03-03 03:39:08,0.19,12.45,0.00,21.17,24.07,28.25,14.91,54.13,1030.14,2036.05,880.08,1414.66,1564.70,599.93,607.63,46.64,0000 0000 0000 0000 000000
2017-03-03 03:44:09,0.18,12.46,0.00,21.19,24.09,28.25,14.95,54.16,1030.23,2036.02,879.22,1414.03,1564.04,600.14,607.86,46.69,0000 0000 0000 0000 000000
2017-03-03 03:49:10,0.12,12.46,0.00,21.23,24.11,28.25,14.87,54.20,1030.27,2036.00,878.39,1413.99,1563.92,599.95,607.55,46.74,0000 0000 0000 0000 000000
2017-03-03 03:54:11,0.24,12.47,0.00,21.24,24.13,28.29,14.91,53.98,1030.29,2036.00,877.49,1413.38,1563.15,600.10,607.68,46.79,0000 0000 0000 0000 000000
2017-03-03 03:59:12,0.11,12.48,0.00,21.24,24.15,28.30,14.96,54.22,1030.29,2036.00,876.72,1413.01,1562.98,600.29,607.99,46.84,0000 0000 0000 0000 000000
2017-03-03 04:04:14,0.13,12.49,0.00,21.28,24.17,28.34,14.91,54.22,1030.29,2036.00,875.90,1412.86,1562.41,600.03,607.60,46.90,0000 0000 0000 0000 000000
2017-03-03 04:09:15,0.20,12.50,0.00,21.30,24.19,28.34,14.98,54.19,1030.29,2035.99,875.06,1412.08,1562.00,600.34,607.81,46.95,0000 0000 0000 0000 000000
2017-03-03 04:14:16,0.17,12.51,0.00,21.30,24.22,28.37,14.93,54.02,1030.29,2035.99,874.23,1411.98,1561.44,599.99,607.60,47.00,0000 0000 0000 0000 000000
2017-03-03 04:19:18,0.20,12.52,0.00,21.33,24.24,28.39,14.83,54.02,1030.29,2035.97,873.43,1411.33,1561.01,600.12,607.60,47.05,0000 0000 0000 0000 000000
2017-03-03 04:24:19,0.14,12.52,0.00,21.38,24.26,28.41,14.84,54.11,1030.29,2035.94,872.62,1411.00,1560.67,599.87,607.21,47.10,0000 0000 0000 0000 000000
2017-03-03 04:29:20,0.08,12.53,0.00,21.39,24.29,28.43,14.90,54.07,1030.29,2035.71,871.86,1410.69,1560.03,600.16,607.52,47.15,0000 0000 0000 0000 000000
2017-03-03 04:34:22,0.10,12.54,0.00,21.42,24.31,28.45,14.90,54.10,1030.29,2035.27,871.04,1410.03,1559.74,600.08,607.41,47.20,0000 0000 0000 0000 000000
2017-03-03 04:39:23,0.14,12.54,0.00,21.44,24.33,28.48,14.81,54.05,1030.29,2035.07,870.21,1409.95,1559.04,599.80,607.05,47.25,0000 0000 0000 0000 000000
2017-03-03 04:44:24,0.21,12.55,0.00,21.45,24.36,28.51,14.83,54.02,1030.29,2035.03,869.39,1409.23,1558.81,599.76,607.04,47.30,0000 0000 0000 0000 000000
2017-03-03 04:49:25,0.14,12.56,0.00,21.48,24.38,28.53,14.92,54.18,1030.29,2035.02,868.61,1409.00,1558.07,600.17,607.31,47.35,0000 0000 0000 0000 000000
2017-03-03 04:54:27,0.17,12.57,0.00,21.51,24.40,28.56,14.93,54.28,1030.29,2035.00,867.80,1408.53,1557.85,600.15,607.24,47.40,0000 0000 0000 0000 000000
2017-03-03 04:59:28,0.14,12.58,0.00,21.51,24.42,28.57,14.89,54.27,1030.29,2035.00,867.00,1408.01,1557.07,600.00,607.10,47.45,0000 0000 0000 0000 000000
2017-03-03 05:04:29,0.14,12.59,0.00,21.53,24.44,28.60,14.86,54.17,1030.30,2035.00,866.12,1407.92,1556.93,599.79,606.80,47.50,0000 0000 0000 0000 000000
2017-03-03 05:09:31,0.25,12.59,0.00,21.56,24.46,28.62,14.89,54.25,1030.29,2034.98,865.42,1407.14,1556.12,599.92,606.98,47.55,0000 0000 0000 0000 000000
2017-03-03 05:14:32,0.09,12.60,0.00,21.58,24.49,28.64,14.89,54.45,1030.29,2034.92,864.65,1406.99,1555.97,599.95,606.91,47.60,0000 0000 0000 0000 000000
2017-03-03 05:19:33,0.14,12.61,0.00,21.61,24.50,28.65,14.96,54.67,1030.30,2034.82,863.90,1406.68,1555.27,600.08,606.91,47.65,0000 0000 0000 0000 000000
2017-03-03 05:24:35,0.15,12.62,0.00,21.65,24.52,28.68,14.86,54.65,1030.29,2034.60,863.05,1406.04,1554.99,600.08,606.87,47.70,0000 0000 0000 0000 000000
2017-03-03 05:29:36,0.09,12.62,0.00,21.64,24.55,28.69,14.92,54.55,1030.30,2034.32,862.18,1405.98,1554.52,600.11,606.99,47.75,0000 0000 0000 0000 000000
2017-03-03 05:34:38,0.18,12.63,0.00,21.68,24.56,28.72,14.85,54.48,1030.31,2034.11,861.47,1405.42,1554.01,599.78,606.65,47.80,0000 0000 0000 0000 000000
2017-03-03 05:39:39,0.10,12.63,0.00,21.69,24.59,28.74,15.03,54.42,1030.30,2034.02,860.77,1405.00,1553.75,600.35,607.08,47.86,0000 0000 0000 0000 000000
2017-03-03 05:44:40,0.14,12.64,0.00,21.71,24.61,28.77,14.82,54.42,1030.32,2034.00,860.00,1404.77,1553.05,599.79,606.47,47.91,0000 0000 0000 0000 000000
2017-03-03 05:49:42,0.20,12.65,0.00,21.75,24.63,28.78,14.85,54.17,1030.36,2034.00,859.16,1404.05,1552.89,600.03,606.63,47.96,0000 0000 0000 0000 000000
2017-03-03 05:54:43,0.16,12.66,0.00,21.76,24.65,28.82,14.80,54.37,1030.43,2033.99,858.46,1403.99,1552.12,599.80,606.49,48.01,0000 0000 0000 0000 000000
2017-03-03 05:59:44,0.14,12.67,0.00,21.76,24.67,28.83,14.90,54.38,1030.42,2033.99,857.74,1403.55,1551.99,600.30,606.96,48.06,0000 0000 0000 0000 000000
2017-03-03 06:04:45,0.16,12.68,0.00,21.81,24.70,28.84,14.84,54.23,1030.47,2033.98,856.98,1403.02,1551.25,600.00,606.59,48.11,0000 0000 0000 0000 000000
2017-03-03 06:09:47,0.17,12.69,0.00,21.83,24.72,28.85,14.74,54.26,1030.64,2033.97,856.13,1402.72,1550.97,599.72,606.45,48.16,0000 0000 0000 0000 000000
2017-03-03 06:14:48,0.17,12.69,0.00,21.84,24.74,28.87,14.93,54.29,1030.67,2033.78,855.46,1402.04,1550.21,600.28,606.97,48.21,0000 0000 0000 0000 000000
2017-03-03 06:19:49,0.05,12.70,0.00,21.88,24.76,28.89,14.93,54.20,1030.70,2033.40,854.69,1401.94,1549.97,600.26,606.80,48.26,0000 0000 0000 0000 000000
2017-03-03 06:24:51,0.20,12.71,0.00,21.86,24.78,28.90,14.80,54.17,1030.72,2033.12,853.73,1401.22,1549.24,599.72,606.31,48.31,0000 0000 0000 0000 000000
2017-03-03 06:29:52,0.08,12.71,0.00,21.85,24.80,28.92,14.87,54.34,1030.76,2033.02,852.95,1400.99,1548.99,599.92,606.67,48.36,0000 0000 0000 0000 000000
2017-03-03 06:34:53,0.24,12.72,0.00,21.87,24.82,28.96,14.86,54.25,1030.77,2033.01,852.10,1400.54,1548.39,599.95,606.62,48.41,0000 0000 0000 0000 000000
2017-03-03 06:39:54,0.15,12.73,0.00,21.88,24.84,28.99,14.81,54.18,1030.76,2033.00,851.47,1400.02,1548.00,600.01,606.53,48.46,0000 0000 0000 0000 000000
2017-03-03 06:44:56,0.12,12.74,0.00,21.88,24.86,28.99,14.88,54.17,1030.75,2033.00,850.73,1399.95,1547.56,600.23,606.78,48.51,0000 0000 0000 0000 000000
2017-03-03 06:49:57,0.16,12.75,0.00,21.92,24.87,29.01,14.87,54.30,1030.77,2033.00,850.00,1399.25,1547.01,599.83,606.28,48.56,0000 0000 0000 0000 000000
2017-03-03 06:54:58,0.15,12.76,0.00,21.93,24.90,29.03,14.84,54.27,1030.77,2033.00,849.16,1399.00,1546.85,599.80,606.33,48.61,0000 0000 0000 0000 000000
2017-03-03 07:00:00,0.18,12.76,0.00,21.93,24.91,29.05,14.87,54.26,1030.78,2032.99,848.48,1398.81,1546.10,599.85,606.50,48.66,0000 0000 0000 0000 000000
2017-03-03 07:05:01,0.11,12.77,0.00,21.95,24.93,29.07,14.88,54.27,1030.78,2032.98,847.85,1398.07,1545.96,600.15,606.62,48.71,0000 0000 0000 0000 000000
2017-03-03 07:10:02,0.15,12.78,0.00,21.95,24.95,29.08,14.83,54.33,1030.78,2032.96,847.01,1397.99,1545.27,599.86,606.30,48.77,0000 0000 0000 0000 000000
2017-03-03 07:15:04,0.18,12.79,0.00,21.93,24.96,29.09,14.85,54.28,1030.78,2032.87,846.17,1397.45,1545.00,600.03,606.45,48.82,0000 0000 0000 0000 000000
2017-03-03 07:20:05,0.12,12.79,0.00,21.99,24.97,29.12,14.92,54.33,1030.78,2032.65,845.55,1397.01,1544.65,599.98,606.39,48.87,0000 0000 0000 0000 000000
2017-03-03 07:25:07,0.09,12.80,0.00,21.98,24.99,29.12,14.87,54.27,1030.78,2032.58,844.89,1396.96,1544.04,600.09,606.41,48.92,0000 0000 0000 0000 000000
2017-03-03 07:30:08,0.14,12.81,0.00,21.98,25.01,29.13,14.81,54.21,1030.78,2032.42,844.07,1396.48,1543.97,600.02,606.40,48.97,0000 0000 0000 0000 000000
2017-03-03 07:35:09,0.13,12.81,0.00,22.01,25.02,29.14,14.87,54.23,1030.78,2032.11,843.40,1396.01,1543.22,599.78,606.11,49.02,0000 0000 0000 0000 000000
2017-03-03 07:40:11,0.06,12.82,0.00,22.00,25.04,29.16,14.85,54.28,1030.78,2032.04,842.79,1395.97,1543.00,599.95,606.43,49.07,0000 0000 0000 0000 000000
2017-03-03 07:45:12,0.19,12.83,0.00,22.01,25.05,29.15,14.85,54.37,1030.79,2032.04,842.03,1395.41,1542.72,599.81,606.18,49.12,0000 0000 0000 0000 000000
2017-03-03 07:50:13,0.17,12.84,0.00,22.03,25.07,29.15,14.90,54.36,1030.80,2032.02,841.28,1395.01,1542.04,600.01,606.33,49.17,0000 0000 0000 0000 000000
2017-03-03 07:55:14,0.10,12.84,0.00,22.02,25.08,29.19,14.90,54.26,1030.81,2032.00,840.60,1394.95,1541.93,600.08,606.45,49.22,0000 0000 0000 0000 000000
2017-03-03 08:00:16,0.17,12.85,0.00,22.02,25.10,29.20,14.91,54.31,1030.89,2032.00,839.99,1394.24,1541.22,600.14,606.59,49.27,0000 0000 0000 0000 000000
2017-03-03 08:05:17,0.13,12.86,0.00,22.06,25.11,29.22,14.85,54.34,1031.07,2032.00,839.19,1394.00,1541.00,599.86,606.22,49.32,0000 0000 0000 0000 000000
2017-03-03 08:10:18,0.17,12.86,0.00,22.08,25.12,29.22,14.88,54.34,1031.22,2032.00,838.51,1393.89,1540.62,600.00,606.53,49.37,0000 0000 0000 0000 000000
2017-03-03 08:15:20,0.14,12.87,0.00,22.08,25.13,29.24,14.88,54.29,1031.23,2032.00,837.86,1393.19,1540.03,600.15,606.68,49.42,0000 0000 0000 0000 000000
2017-03-03 08:20:21,0.12,12.88,0.00,22.13,25.15,29.25,14.81,54.38,1031.24,2032.00,837.07,1393.00,1539.97,599.89,606.23,49.47,0000 0000 0000 0000 000000
2017-03-03 08:25:22,0.18,12.89,0.00,22.12,25.16,29.26,14.87,54.36,1031.24,2031.99,836.33,1392.91,1539.26,600.01,606.45,49.52,0000 0000 0000 0000 000000
2017-03-03 08:30:24,0.13,12.90,0.00,22.11,25.17,29.26,14.90,54.38,1031.25,2031.99,835.81,1392.15,1539.00,599.68,606.24,49.57,0000 0000 0000 0000 000000
2017-03-03 08:35:25,0.13,12.90,0.00,22.11,25.19,29.28,14.87,54.52,1031.26,2031.98,835.03,1392.00,1538.72,599.90,606.35,49.62,0000 0000 0000 0000 000000
2017-03-03 08:40:26,0.17,12.91,0.00,22.12,25.20,29.31,14.81,54.33,1031.26,2031.99,834.25,1391.90,1538.04,600.05,606.44,49.68,0000 0000 0000 0000 000000
2017-03-03 08:45:28,0.20,12.92,0.00,22.12,25.21,29.31,14.83,54.33,1031.26,2031.98,833.54,1391.17,1537.85,599.83,606.33,49.73,0000 0000 0000 0000 000000
2017-03-03 08:50:29,0.07,12.93,0.00,22.16,25.22,29.29,14.82,54.38,1031.27,2031.91,832.90,1390.98,1537.09,599.83,606.10,49.78,0000 0000 0000 0000 000000
2017-03-03 08:55:30,0.18,12.94,0.00,22.16,25.23,29.31,14.84,54.47,1031.27,2031.89,832.07,1390.47,1536.98,600.02,606.42,49.83,0000 0000 0000 0000 000000
2017-03-03 09:00:31,0.15,12.94,0.00,22.14,25.25,29.31,14.83,54.37,1031.29,2031.74,831.46,1390.03,1536.46,599.79,606.13,49.88,0000 0000 0000 0000 000000
2017-03-03 09:05:32,0.05,12.95,0.00,22.15,25.25,29.32,14.89,54.41,1031.32,2031.64,830.96,1389.99,1536.01,600.14,606.53,49.93,0000 0000 0000 0000 000000
2017-03-03 09:10:33,0.15,12.95,0.00,22.15,25.27,29.34,14.92,54.49,1031.46,2031.36,830.15,1389.50,1535.96,600.31,606.84,49.98,0000 0000 0000 0000 000000
2017-03-03 09:15:34,0.16,12.96,0.00,22.16,25.27,29.32,14.89,54.33,1031.64,2031.24,829.57,1389.03,1535.30,599.76,606.32,50.03,0000 0000 0000 0000 000000
2017-03-03 09:20:36,0.03,12.96,0.00,22.18,25.28,29.33,14.85,54.46,1031.69,2031.16,828.95,1389.00,1535.01,599.90,606.32,50.08,0000 0000 0000 0000 000000
2017-03-03 09:25:37,0.15,12.97,0.00,22.16,25.30,29.33,14.88,54.42,1031.73,2031.13,828.12,1388.75,1534.99,600.04,606.61,50.13,0000 0000 0000 0000 000000
2017-03-03 09:30:38,0.20,12.98,0.00,22.15,25.30,29.33,14.93,54.48,1031.75,2031.11,827.54,1388.09,1534.55,600.05,606.79,50.18,0000 0000 0000 0000 000000
2017-03-03 09:35:40,0.06,12.99,0.00,22.18,25.30,29.35,14.86,54.52,1031.75,2031.03,826.89,1388.00,1534.03,600.20,606.80,50.23,0000 0000 0000 0000 000000
2017-03-03 09:40:41,0.13,12.99,0.00,22.17,25.32,29.35,14.85,54.58,1031.75,2031.04,826.07,1387.92,1533.97,599.76,606.45,50.28,0000 0000 0000 0000 000000
2017-03-03 09:45:42,0.25,13.00,0.00,22.20,25.32,29.34,14.84,54.45,1031.75,2031.03,825.44,1387.17,1533.35,599.82,606.37,50.33,0000 0000 0000 0000 000000
2017-03-03 09:50:43,0.06,13.01,0.00,22.20,25.32,29.36,14.89,54.55,1031.76,2031.01,824.84,1387.01,1533.00,600.02,606.55,50.38,0000 0000 0000 0000 000000
2017-03-03 09:55:44,0.13,13.01,0.00,22.17,25.33,29.35,14.81,54.52,1031.76,2031.01,824.05,1386.92,1532.83,599.77,606.35,50.43,0000 0000 0000 0000 000000
2017-03-03 10:00:46,0.24,13.02,0.00,22.18,25.35,29.37,14.91,54.51,1031.77,2031.00,823.45,1386.21,1532.09,599.88,606.40,50.48,0000 0000 0000 0000 000000
2017-03-03 10:05:47,0.06,13.03,0.00,22.20,25.35,29.36,14.87,54.44,1031.77,2031.00,822.81,1386.00,1532.00,600.15,606.71,50.53,0000 0000 0000 0000 000000
2017-03-03 10:10:49,0.13,13.04,0.00,22.19,25.35,29.35,14.94,54.48,1031.77,2031.00,822.04,1385.95,1531.67,600.10,606.71,50.59,0000 0000 0000 0000 000000
2017-03-03 10:15:50,0.23,13.05,0.00,22.20,25.36,29.38,14.83,54.52,1031.78,2031.00,821.32,1385.33,1531.04,600.13,606.68,50.64,0000 0000 0000 0000 000000
2017-03-03 10:20:51,0.10,13.05,0.00,22.20,25.37,29.39,14.84,54.40,1031.77,2030.99,820.70,1385.01,1530.97,599.76,606.40,50.69,0000 0000 0000 0000 000000
2017-03-03 10:25:53,0.11,13.06,0.00,22.17,25.37,29.38,14.96,54.44,1031.78,2030.99,820.01,1384.99,1530.48,600.24,606.75,50.74,0000 0000 0000 0000 000000
2017-03-03 10:30:54,0.16,13.07,0.00,22.23,25.38,29.41,14.92,54.49,1031.80,2030.99,819.26,1384.83,1530.03,600.17,606.71,50.79,0000 0000 0000 0000 000000
2017-03-03 10:35:55,0.17,13.07,0.00,22.23,25.39,29.39,14.88,54.48,1031.83,2030.99,818.64,1384.10,1529.99,600.19,606.69,50.84,0000 0000 0000 0000 000000
2017-03-03 10:40:57,0.10,13.08,0.00,22.21,25.40,29.38,14.80,54.49,1031.79,2030.98,817.97,1384.00,1529.48,599.92,606.60,50.89,0000 0000 0000 0000 000000
2017-03-03 10:45:58,0.16,13.09,0.00,22.21,25.40,29.41,14.93,54.61,1031.81,2030.98,817.14,1383.91,1529.01,600.08,606.58,50.94,0000 0000 0000 0000 000000
2017-03-03 10:50:59,0.18,13.10,0.00,22.23,25.40,29.36,14.88,54.48,1031.80,2030.99,816.59,1383.29,1528.98,599.74,606.33,50.99,0000 0000 0000 0000 000000
2017-03-03 10:56:01,0.09,13.11,0.00,22.20,25.42,29.39,14.81,54.52,1031.90,2030.99,815.97,1383.01,1528.43,599.72,606.30,51.04,0000 0000 0000 0000 000000
2017-03-03 11:01:02,0.15,13.11,0.00,22.23,25.42,29.38,14.93,54.52,1031.94,2030.98,815.15,1382.99,1528.01,600.22,606.78,51.09,0000 0000 0000 0000 000000
2017-03-03 11:06:03,0.16,13.12,0.00,22.22,25.42,29.39,14.88,54.43,1032.10,2030.99,814.56,1382.64,1527.99,600.39,607.07,51.14,0000 0000 0000 0000 000000
2017-03-03 11:11:04,0.13,13.13,0.00,22.19,25.42,29.38,14.90,54.59,1032.19,2030.97,813.90,1382.05,1527.59,600.20,607.02,51.19,0000 0000 0000 0000 000000
2017-03-03 11:16:06,0.14,13.14,0.00,22.23,25.43,29.40,14.96,54.38,1032.19,2030.97,813.07,1382.00,1527.02,600.27,607.08,51.24,0000 0000 0000 0000 000000
2017-03-03 11:21:07,0.15,13.14,0.00,22.22,25.44,29.44,14.93,54.58,1032.24,2030.96,812.47,1381.88,1526.97,600.25,607.04,51.29,0000 0000 0000 0000 000000
2017-03-03 11:26:08,0.14,13.15,0.00,22.23,25.45,29.43,14.90,54.53,1032.24,2030.97,811.95,1381.18,1526.46,599.89,606.52,51.34,0000 0000 0000 0000 000000
2017-03-03 11:31:09,0.14,13.16,0.00,22.22,25.45,29.41,14.80,54.60,1032.24,2030.94,811.14,1381.01,1526.02,599.86,606.76,51.39,0000 0000 0000 0000 000000
2017-03-03 11:36:11,0.11,13.16,0.00,22.24,25.45,29.44,14.82,54.67,1032.24,2030.84,810.50,1380.97,1525.96,599.98,606.72,51.45,0000 0000 0000 0000 000000
2017-03-03 11:41:12,0.14,13.17,0.00,22.21,25.45,29.41,14.87,54.71,1032.24,2030.84,809.93,1380.55,1525.33,599.68,606.50,51.50,0000 0000 0000 0000 000000
2017-03-03 11:46:13,0.16,13.18,0.00,22.24,25.45,29.43,14.92,54.69,1032.24,2030.81,809.13,1380.04,1525.01,600.11,606.83,51.55,0000 0000 0000 0000 000000
2017-03-03 11:51:15,0.11,13.18,0.00,22.26,25.46,29.41,14.90,54.73,1032.24,2030.75,808.52,1379.99,1524.97,600.01,606.76,51.60,0000 0000 0000 0000 000000
2017-03-03 11:56:16,0.05,13.19,0.00,22.24,25.47,29.44,14.85,54.68,1032.24,2030.64,807.94,1379.94,1524.50,599.76,606.60,51.65,0000 0000 0000 0000 000000
2017-03-03 12:01:18,0.23,13.20,0.00,22.26,25.47,29.43,14.89,54.71,1032.24,2030.64,807.13,1379.32,1524.01,599.93,606.76,51.70,0000 0000 0000 0000 000000
2017-03-03 12:06:19,0.08,13.20,0.00,22.25,25.47,29.45,14.77,54.64,1032.24,2030.38,806.57,1379.01,1523.99,599.72,606.40,51.75,0000 0000 0000 0000 000000
2017-03-03 12:11:20,0.04,13.21,0.00,22.25,25.47,29.44,14.89,54.64,1032.24,2030.21,805.98,1379.00,1523.68,599.99,606.78,51.80,0000 0000 0000 0000 000000
2017-03-03 12:16:22,0.19,13.21,0.00,22.27,25.47,29.47,14.87,54.75,1032.24,2030.11,805.16,1378.74,1523.05,600.04,606.72,51.85,0000 0000 0000 0000 000000
2017-03-03 12:21:23,0.18,13.22,0.00,22.24,25.47,29.44,14.89,54.79,1032.25,2030.13,804.61,1378.10,1523.00,600.28,607.04,51.90,0000 0000 0000 0000 000000
2017-03-03 12:26:24,0.07,13.23,0.00,22.24,25.48,29.44,14.84,54.71,1032.24,2030.19,803.99,1378.00,1522.83,599.62,606.38,51.95,0000 0000 0000 0000 000000
2017-03-03 12:31:26,0.19,13.24,0.00,22.28,25.49,29.41,14.80,54.71,1032.24,2030.21,803.20,1378.00,1522.13,599.94,606.61,52.00,0000 0000 0000 0000 000000
2017-03-03 12:36:27,0.11,13.24,0.00,22.26,25.50,29.43,14.95,54.68,1032.26,2030.12,802.67,1377.74,1522.00,600.25,607.04,52.05,0000 0000 0000 0000 000000
2017-03-03 12:41:29,0.12,13.25,0.00,22.26,25.50,29.44,14.93,54.65,1032.35,2030.11,802.01,1377.11,1521.96,600.18,606.83,52.10,0000 0000 0000 0000 000000
2017-03-03 12:46:30,0.21,13.26,0.00,22.28,25.50,29.45,14.88,54.75,1032.55,2030.18,801.26,1377.00,1521.35,599.81,606.60,52.15,0000 0000 0000 0000 000000
2017-03-03 12:51:31,0.09,13.26,0.00,22.25,25.50,29.44,14.91,54.81,1032.54,2030.17,800.66,1376.97,1521.01,600.38,607.28,52.20,0000 0000 0000 0000 000000
2017-03-03 12:56:33,0.11,13.27,0.00,22.26,25.50,29.47,14.88,54.73,1032.51,2030.08,800.00,1376.52,1520.98,599.81,606.75,52.25,0000 0000 0000 0000 000000